TimeEDT,TemperatureF,Dew PointF,Humidity,Sea Level PressureIn,VisibilityMPH,Wind Direction,Wind SpeedMPH,Gust SpeedMPH,PrecipitationIn,Events,Conditions,WindDirDegrees,DateUTC
12:10 AM,66.2,64.4,94,30.08,4.0,West,4.6,-,N/A,,Mostly Cloudy,270,2013-08-23 04:10:00
12:54 AM,66.0,64.9,96,30.05,5.0,WSW,6.9,-,0.00,Rain,Light Rain,250,2013-08-23 04:54:00
1:47 AM,64.4,64.4,100,30.07,2.5,West,3.5,-,0.00,,Scattered Clouds,260,2013-08-23 05:47:00
1:54 AM,64.9,64.9,100,30.03,2.5,WNW,3.5,-,0.00,,Scattered Clouds,290,2013-08-23 05:54:00
2:03 AM,66.2,64.4,94,30.07,4.0,NNW,5.8,-,N/A,,Partly Cloudy,330,2013-08-23 06:03:00
2:54 AM,64.9,64.0,97,30.02,3.0,Calm,Calm,-,N/A,,Clear,0,2013-08-23 06:54:00
2:58 AM,64.4,64.4,100,30.06,2.5,Calm,Calm,-,N/A,,Partly Cloudy,0,2013-08-23 06:58:00
3:04 AM,64.4,64.4,100,30.06,1.0,Calm,Calm,-,N/A,,Mist,0,2013-08-23 07:04:00
3:07 AM,64.4,64.4,100,30.06,0.8,Calm,Calm,-,N/A,,Mist,0,2013-08-23 07:07:00
3:16 AM,64.4,64.4,100,30.06,0.5,Calm,Calm,-,N/A,Fog,Fog,0,2013-08-23 07:16:00
3:34 AM,64.4,64.4,100,30.06,1.8,Calm,Calm,-,N/A,,Mostly Cloudy,0,2013-08-23 07:34:00
3:41 AM,64.4,64.4,100,30.06,2.0,Calm,Calm,-,N/A,,Overcast,0,2013-08-23 07:41:00
3:54 AM,64.9,64.0,97,30.02,1.8,Calm,Calm,-,N/A,,Overcast,0,2013-08-23 07:54:00
4:06 AM,64.4,64.4,100,30.06,1.5,Calm,Calm,-,N/A,,Overcast,0,2013-08-23 08:06:00
4:13 AM,64.4,64.4,100,30.06,0.2,Calm,Calm,-,N/A,Fog,Fog,0,2013-08-23 08:13:00
4:52 AM,64.4,64.4,100,30.06,1.2,West,3.5,-,N/A,,Overcast,260,2013-08-23 08:52:00
4:54 AM,64.0,64.0,100,30.03,2.0,West,3.5,-,N/A,,Overcast,270,2013-08-23 08:54:00
5:02 AM,64.4,64.4,100,30.05,1.8,WNW,3.5,-,N/A,,Overcast,290,2013-08-23 09:02:00
5:09 AM,64.4,64.4,100,30.05,1.5,West,3.5,-,N/A,,Overcast,260,2013-08-23 09:09:00
5:19 AM,64.4,64.4,100,30.06,1.0,West,3.5,-,N/A,,Overcast,260,2013-08-23 09:19:00
5:30 AM,64.4,64.4,100,30.06,0.5,Calm,Calm,-,N/A,Fog,Fog,0,2013-08-23 09:30:00
5:43 AM,64.4,64.4,100,30.06,0.2,Calm,Calm,-,N/A,Fog,Fog,0,2013-08-23 09:43:00
5:54 AM,64.0,64.0,100,30.04,0.2,Calm,Calm,-,N/A,Fog,Fog,0,2013-08-23 09:54:00
6:35 AM,64.4,64.4,100,30.08,0.5,North,4.6,-,0.01,Fog,Fog,10,2013-08-23 10:35:00
6:46 AM,64.4,64.4,100,30.08,1.0,North,4.6,-,0.01,,Overcast,10,2013-08-23 10:46:00
6:51 AM,64.4,64.4,100,30.08,0.2,NNE,3.5,-,0.01,Fog,Fog,20,2013-08-23 10:51:00
6:54 AM,64.0,64.0,100,30.06,0.2,Calm,Calm,-,0.01,Fog,Fog,0,2013-08-23 10:54:00
7:06 AM,64.4,64.4,100,30.09,0.2,North,3.5,-,N/A,Fog,Fog,360,2013-08-23 11:06:00
7:14 AM,64.4,64.4,100,30.09,0.8,North,4.6,-,N/A,,Overcast,10,2013-08-23 11:14:00
7:23 AM,64.4,64.4,100,30.09,1.2,NNE,3.5,-,N/A,,Overcast,20,2013-08-23 11:23:00
7:33 AM,64.4,64.4,100,30.09,0.8,Calm,Calm,-,N/A,,Overcast,0,2013-08-23 11:33:00
7:45 AM,64.4,64.4,100,30.09,1.5,Calm,Calm,-,N/A,,Overcast,0,2013-08-23 11:45:00
7:54 AM,64.0,64.0,100,30.06,1.5,Calm,Calm,-,N/A,,Overcast,0,2013-08-23 11:54:00
8:16 AM,64.4,64.4,100,30.10,2.0,NE,3.5,-,N/A,,Overcast,40,2013-08-23 12:16:00
8:33 AM,64.4,64.4,100,30.09,1.8,Calm,Calm,-,N/A,,Overcast,0,2013-08-23 12:33:00
8:46 AM,64.4,64.4,100,30.09,0.8,Calm,Calm,-,N/A,,Overcast,0,2013-08-23 12:46:00
8:54 AM,64.0,64.0,100,30.07,0.5,NE,3.5,-,N/A,Fog,Fog,50,2013-08-23 12:54:00
9:06 AM,64.4,64.4,100,30.10,1.0,NNE,3.5,-,N/A,,Overcast,30,2013-08-23 13:06:00
9:23 AM,64.4,64.4,100,30.11,0.5,NE,3.5,-,N/A,Fog,Fog,40,2013-08-23 13:23:00
9:34 AM,64.4,64.4,100,30.11,1.8,North,4.6,-,N/A,,Overcast,10,2013-08-23 13:34:00
9:42 AM,64.4,62.6,94,30.12,2.5,North,3.5,-,N/A,,Overcast,360,2013-08-23 13:42:00
9:54 AM,64.0,63.0,96,30.09,2.5,Calm,Calm,-,N/A,,Overcast,0,2013-08-23 13:54:00
10:01 AM,64.4,62.6,94,30.12,3.0,North,3.5,-,0.00,Rain,Light Rain,10,2013-08-23 14:01:00
10:13 AM,64.4,64.4,100,30.13,2.0,North,4.6,-,0.00,Rain,Light Rain,350,2013-08-23 14:13:00
10:33 AM,64.4,64.4,100,30.13,3.0,Calm,Calm,-,0.00,Rain,Light Rain,0,2013-08-23 14:33:00
10:54 AM,64.9,62.1,90,30.11,7.0,Calm,Calm,-,0.00,,Mostly Cloudy,0,2013-08-23 14:54:00
11:54 AM,66.0,61.0,84,30.11,9.0,Calm,Calm,-,N/A,,Overcast,0,2013-08-23 15:54:00
12:54 PM,69.1,61.0,75,30.10,10.0,Variable,4.6,-,0.00,,Partly Cloudy,0,2013-08-23 16:54:00
1:54 PM,71.1,57.0,61,30.10,10.0,Variable,4.6,-,N/A,,Partly Cloudy,0,2013-08-23 17:54:00
2:54 PM,71.1,54.0,55,30.09,10.0,ENE,5.8,-,0.01,,Mostly Cloudy,60,2013-08-23 18:54:00
3:54 PM,73.9,54.0,50,30.08,10.0,Variable,5.8,-,N/A,,Mostly Cloudy,0,2013-08-23 19:54:00
4:54 PM,73.9,55.0,52,30.08,10.0,Calm,Calm,-,N/A,,Partly Cloudy,0,2013-08-23 20:54:00
5:54 PM,71.1,55.0,57,30.08,10.0,East,3.5,-,N/A,,Mostly Cloudy,80,2013-08-23 21:54:00
6:54 PM,69.1,55.0,61,30.09,10.0,North,4.6,-,N/A,,Overcast,360,2013-08-23 22:54:00
7:54 PM,66.9,55.0,66,30.10,10.0,North,4.6,-,N/A,,Partly Cloudy,360,2013-08-23 23:54:00
8:54 PM,64.0,55.0,73,30.13,10.0,Calm,Calm,-,N/A,,Clear,0,2013-08-24 00:54:00
9:54 PM,64.9,54.0,68,30.15,10.0,Calm,Calm,-,N/A,,Partly Cloudy,0,2013-08-24 01:54:00
10:54 PM,64.0,55.9,75,30.16,10.0,Calm,Calm,-,N/A,,Clear,0,2013-08-24 02:54:00
11:54 PM,61.0,54.0,78,30.18,10.0,ENE,4.6,-,N/A,,Clear,60,2013-08-24 03:54:00